This demonstration page uses our WeatherBlox Daily Observations layout. Learn more.

Left ArrowRight Arrow

39.08367, -84.50855

Hourly Observations for May 5, 2019

Temp ( °F °C ) Dew Point ( °F °C ) Humidity (%) Winds ( mph kmh ) Pressure ( in mb ) Visibility ( mi km ) Precip ( " mm )
12:53 am 00:53 Cloudy 57 13.9 52 11.1 83 83 NNE 9 15 29.85 1011 10 16.0934 0 0
1:53 am 01:53 Cloudy 56 13.3 52 11.1 87 87 NNE 6 9 29.84 1011 10 16.0934 0 0
2:53 am 02:53 Cloudy 56 13.3 52 11.1 87 87 NNE 8 13 29.82 1010 10 16.0934 0 0
3:53 am 03:53 Cloudy 55 12.8 51 10.6 87 87 NNE 9 15 29.82 1010 10 16.0934 0 0
4:53 am 04:53 Cloudy 55 12.8 51 10.6 87 87 NNE 8 13 29.82 1010 10 16.0934 0 0
5:53 am 05:53 Cloudy 54 12.2 50 10 87 87 NNE 6 9 29.81 1010 10 16.0934 0 0
6:53 am 06:53 Cloudy 54 12.2 50 10 87 87 NNE 6 9 29.82 1010 10 16.0934 0 0
7:53 am 07:53 Cloudy 54 12.2 50 10 87 87 N 5 7 29.84 1010 10 16.0934 0 0
8:53 am 08:53 Cloudy 56 13.3 50 10 81 81 NNE 8 13 29.86 1011 10 16.0934 0 0
9:53 am 09:53 Cloudy 57 13.9 51 10.6 81 81 N 8 13 29.87 1011 10 16.0934 0 0
10:53 am 10:53 Cloudy 57 13.9 51 10.6 81 81 NNW 7 11 29.88 1012 10 16.0934 0 0
11:53 am 11:53 Mostly Cloudy 63 17.2 52 11.1 68 68 NW 6 9 29.88 1012 10 16.0934 0 0
12:44 pm 12:44 Partly Cloudy 65 18.3 51 10.6 61 61 N 10 17 29.88 1012 10 16.0934 0 0
12:53 pm 12:53 Mostly Cloudy 64 17.8 52 11.1 65 65 NNW 8 13 29.88 1012 10 16.0934 0 0
1:53 pm 13:53 Mostly Sunny 67 19.4 52 11.1 59 59 VRB 7 11 29.88 1012 10 16.0934 0 0
2:53 pm 14:53 Mostly Sunny 68 20 49 9.4 51 51 VRB 6 9 29.86 1011 10 16.0934 0 0
3:53 pm 15:53 Mostly Sunny 69 20.6 49 9.4 49 49 NNE 8 13 29.86 1011 10 16.0934 0 0
4:53 pm 16:53 Sunny 70 21.1 48 8.9 46 46 WNW 8 13 29.86 1011 10 16.0934 0 0
5:53 pm 17:53 Sunny 70 21.1 43 6.1 38 38 N 8 13 29.86 1011 10 16.0934 0 0
6:53 pm 18:53 Sunny 69 20.6 43 6.1 39 39 NNE 7 11 29.87 1012 10 16.0934 0 0
7:53 pm 19:53 Sunny 66 18.9 41 5 40 40 N 5 7 29.88 1012 10 16.0934 0 0
8:53 pm 20:53 Clear 58 14.4 49 9.4 72 72 Calm 29.9 1012 10 16.0934 0 0
9:53 pm 21:53 Clear 55 12.8 47 8.3 74 74 E 3 6 29.92 1013 10 16.0934 0 0
10:53 pm 22:53 Clear 52 11.1 49 9.4 89 89 E 3 6 29.94 1014 10 16.0934 0 0
11:53 pm 23:53 Clear 51 10.6 47 8.3 86 86 Calm 29.96 1014 10 16.0934 0 0

Powered by AerisWeather